Location: Borgo
(42.3939°N, 9.2791°E)
Time: 21:26:09
(UTC+00:00)

COSMO-SKYMED 1 - Pass Details

Date: 24 January 2021
Orbit: 621 x 623 km, 97.9° (Epoch: 03 March)

Event Time Altitude Azimuth Distance (km) Brightness Sun altitude
Rises 17:32:41 0° 12° (NNE) 2,913 5.7 -12.3°
Reaches altitude 10° 17:34:53 10° 12° (NNE) 2,002 4.9 -12.7°
Maximum altitude 17:39:15 86° 282° (WNW) 630 2.6 -13.4°
Drops below altitude 10° 17:43:34 10° 196° (SSW) 1,985 5.5 -14.2°
Sets 17:45:45 0° 195° (SSW) 2,886 6.4 -14.6°
